Port Heiden, AK

2:22 AM AKDT on May 23, 2018 (GMT -0800)
Port Heiden

Weather History for PAPH - February, 2014

Change the Weather History Date:

Friday, February 28, 2014

  Actual Average Record
Temperature  
Mean Temperature 38 °F -  
Max Temperature 42 °F 31 °F 48 °F (2003)
Min Temperature 35 °F 21 °F -2 °F (1999)
Degree Days  
Heating Degree Days 26    
Moisture  
Dew Point 26 °F    
Average Humidity 60    
Maximum Humidity 75    
Minimum Humidity 36    
Precipitation  
Precipitation 0.00 in - - ()
Sea Level Pressure  
Sea Level Pressure 29.88 in    
Wind  
Wind Speed 19 mph (SE)    
Max Wind Speed 26 mph    
Max Gust Speed 34 mph    
Visibility 10 miles    
Events      
Averages and records for this station are not official NWS values.
T = Trace of Precipitation, MM = Missing Value Source: NWS Daily Summary

Daily Weather History Graph

Daily Weather History Graph

Search for Another Location

Airport or City:

Astronomy

Feb. 28, 2014 Rise Set
Actual Time 8:29 AM AKST 7:05 PM AKST
Civil Twilight 7:50 AM AKST 7:44 PM AKST
Nautical Twilight 7:07 AM AKST 8:28 PM AKST
Astronomical Twilight 6:22 AM AKST 9:12 PM AKST
Moon 7:51 AM AKST (2/28) 7:01 PM AKST (2/28)
Length of Visible Light 11h 53m
Length of Day
10h 36m
Waning Crescent, 0% of the Moon is Illuminated
Feb 28
Waning Crescent
Feb 28
New
Mar 8
First Quarter
Mar 16
Full
Mar 23
Last Quarter

Hourly Weather History & Observations

Time (AKST) Temp. Windchill Dew Point Humidity Pressure Visibility Wind Dir Wind Speed Gust Speed Precip Events Conditions
12:16 AM 39.2 °F 28.7 °F 28.4 °F 65% 29.64 in 10.0 mi SSE 23.0 mph 28.8 mph N/A   Overcast
12:36 AM 39.2 °F 28.0 °F 28.4 °F 65% 29.64 in 10.0 mi SSE 26.5 mph 32.2 mph N/A   Overcast
12:56 AM 39.2 °F 28.0 °F 30.2 °F 70% 29.65 in 10.0 mi SSE 26.5 mph 31.1 mph N/A   Overcast
1:16 AM 39.2 °F 28.7 °F 28.4 °F 65% 29.67 in 10.0 mi SSE 23.0 mph - N/A   Overcast
1:36 AM 39.2 °F 28.3 °F 28.4 °F 65% 29.68 in 10.0 mi SSE 25.3 mph 32.2 mph N/A   Overcast
1:56 AM 39.2 °F 28.5 °F 28.4 °F 65% 29.70 in 10.0 mi SSE 24.2 mph 34.5 mph N/A   Overcast
2:16 AM 39.2 °F 28.3 °F 28.4 °F 65% 29.71 in 10.0 mi SSE 25.3 mph 29.9 mph N/A   Overcast
2:36 AM 39.2 °F 29.0 °F 28.4 °F 65% 29.73 in 10.0 mi SSE 21.9 mph 27.6 mph N/A   Overcast
2:56 AM 39.2 °F 29.6 °F 28.4 °F 65% 29.74 in 10.0 mi SSE 19.6 mph 28.8 mph N/A   Overcast
3:16 AM 39.2 °F 29.8 °F 28.4 °F 65% 29.76 in 10.0 mi SSE 18.4 mph 23.0 mph N/A   Overcast
3:36 AM 39.2 °F 31.2 °F 28.4 °F 65% 29.78 in 10.0 mi South 13.8 mph - N/A   Overcast
3:56 AM 37.4 °F 28.2 °F 28.4 °F 70% 29.78 in 10.0 mi SSE 16.1 mph 21.9 mph N/A   Overcast
4:16 AM 37.4 °F 27.5 °F 28.4 °F 70% 29.79 in 10.0 mi SSE 18.4 mph - N/A   Mostly Cloudy
4:36 AM 37.4 °F 27.5 °F 28.4 °F 70% 29.79 in 10.0 mi SSE 18.4 mph 24.2 mph N/A   Partly Cloudy
4:56 AM 37.4 °F 27.5 °F 26.6 °F 65% 29.80 in 10.0 mi SE 18.4 mph - N/A   Clear
5:16 AM 37.4 °F 28.2 °F 28.4 °F 70% 29.81 in 10.0 mi SE 16.1 mph - N/A   Clear
5:36 AM 37.4 °F 27.5 °F 28.4 °F 70% 29.82 in 10.0 mi SE 18.4 mph 23.0 mph N/A   Clear
5:56 AM 37.4 °F 27.5 °F 28.4 °F 70% 29.84 in 10.0 mi SE 18.4 mph - N/A   Clear
6:16 AM 37.4 °F 27.5 °F 26.6 °F 65% 29.84 in 10.0 mi SE 18.4 mph - N/A   Clear
6:36 AM 37.4 °F 28.2 °F 26.6 °F 65% 29.85 in 10.0 mi SE 16.1 mph - N/A   Clear
6:56 AM 37.4 °F 28.2 °F 26.6 °F 65% 29.86 in 10.0 mi SSE 16.1 mph - N/A   Partly Cloudy
7:16 AM 37.4 °F 26.9 °F 26.6 °F 65% 29.86 in 10.0 mi SE 20.7 mph 24.2 mph N/A   Mostly Cloudy
7:36 AM 37.4 °F 27.2 °F 26.6 °F 65% 29.87 in 10.0 mi SSE 19.6 mph - N/A   Overcast
7:56 AM 37.4 °F 27.5 °F 26.6 °F 65% 29.88 in 10.0 mi SE 18.4 mph 24.2 mph N/A   Overcast
8:16 AM 37.4 °F 28.2 °F 28.4 °F 70% 29.89 in 10.0 mi SE 16.1 mph - N/A   Overcast
8:36 AM 37.4 °F 28.2 °F 26.6 °F 65% 29.90 in 10.0 mi SE 16.1 mph - N/A   Overcast
8:56 AM 35.6 °F 26.2 °F 28.4 °F 75% 29.91 in 10.0 mi SE 15.0 mph - N/A   Mostly Cloudy
9:16 AM 37.4 °F 28.2 °F 26.6 °F 65% 29.92 in 10.0 mi SE 16.1 mph - N/A   Partly Cloudy
9:36 AM 37.4 °F 27.5 °F 26.6 °F 65% 29.93 in 10.0 mi SE 18.4 mph - N/A   Clear
9:56 AM 37.4 °F 28.5 °F 28.4 °F 70% 29.93 in 10.0 mi SE 15.0 mph - N/A   Clear
10:16 AM 39.2 °F 30.8 °F 28.4 °F 65% 29.93 in 10.0 mi SE 15.0 mph - N/A   Clear
10:36 AM 39.2 °F 29.6 °F 28.4 °F 65% 29.95 in 10.0 mi SE 19.6 mph - N/A   Clear
10:56 AM 39.2 °F 31.2 °F 28.4 °F 65% 29.96 in 10.0 mi SE 13.8 mph - N/A   Clear
11:16 AM 41.0 °F 33.1 °F 28.4 °F 61% 29.96 in 10.0 mi SE 15.0 mph - N/A   Clear
11:36 AM 42.8 °F 34.3 °F 26.6 °F 53% 29.96 in 10.0 mi SE 19.6 mph - N/A   Clear
11:56 AM 42.8 °F 34.3 °F 26.6 °F 53% 29.96 in 10.0 mi SSE 19.6 mph 24.2 mph N/A   Clear
12:16 PM 42.8 °F 34.0 °F 26.6 °F 53% 29.96 in 10.0 mi SE 20.7 mph - N/A   Clear
12:36 PM 42.8 °F 34.3 °F 26.6 °F 53% 29.96 in 10.0 mi SE 19.6 mph - N/A   Clear
12:56 PM 42.8 °F 34.3 °F 26.6 °F 53% 29.96 in 10.0 mi SE 19.6 mph - N/A   Clear
1:16 PM 42.8 °F 34.0 °F 26.6 °F 53% 29.96 in 10.0 mi SE 20.7 mph - N/A   Scattered Clouds
1:36 PM 42.8 °F 34.5 °F 26.6 °F 53% 29.97 in 10.0 mi SE 18.4 mph 24.2 mph N/A   Scattered Clouds
1:56 PM 42.8 °F 34.3 °F 24.8 °F 49% 29.97 in 10.0 mi SE 19.6 mph 24.2 mph N/A   Scattered Clouds
2:16 PM 42.8 °F 34.0 °F 24.8 °F 49% 29.96 in 10.0 mi SE 20.7 mph - N/A   Partly Cloudy
2:36 PM 42.8 °F 34.3 °F 24.8 °F 49% 29.97 in 10.0 mi SSE 19.6 mph 24.2 mph N/A   Clear
2:56 PM 42.8 °F 34.0 °F 24.8 °F 49% 29.96 in 10.0 mi SE 20.7 mph 28.8 mph N/A   Clear
3:16 PM 42.8 °F 34.0 °F 24.8 °F 49% 29.96 in 10.0 mi SSE 20.7 mph 29.9 mph N/A   Clear
3:36 PM 42.8 °F 33.5 °F 24.8 °F 49% 29.96 in 10.0 mi SE 23.0 mph - N/A   Clear
3:56 PM 42.8 °F 34.8 °F 24.8 °F 49% 29.97 in 10.0 mi SE 17.3 mph 23.0 mph N/A   Clear
4:16 PM 42.8 °F 33.3 °F 24.8 °F 49% 29.95 in 10.0 mi SE 24.2 mph - N/A   Clear
4:36 PM 42.8 °F 33.1 °F 24.8 °F 49% 29.94 in 10.0 mi SE 25.3 mph 33.4 mph N/A   Clear
4:56 PM 42.8 °F 35.8 °F 26.6 °F 53% 29.95 in 10.0 mi ESE 13.8 mph - N/A   Clear
5:16 PM 41.0 °F 32.8 °F 26.6 °F 57% 29.94 in 10.0 mi SE 16.1 mph 21.9 mph N/A   Clear
5:36 PM 41.0 °F 33.9 °F 26.6 °F 57% 29.95 in 10.0 mi SE 12.7 mph - N/A   Clear
5:56 PM 41.0 °F 34.3 °F 24.8 °F 53% 29.94 in 10.0 mi ESE 11.5 mph - N/A   Clear
6:16 PM 39.2 °F 31.6 °F 24.8 °F 56% 29.93 in 10.0 mi ESE 12.7 mph - N/A   Clear
6:36 PM 39.2 °F 30.8 °F 24.8 °F 56% 29.93 in 10.0 mi SE 15.0 mph - N/A   Clear
6:56 PM 37.4 °F 32.8 °F 24.8 °F 60% 29.94 in 10.0 mi ESE 5.8 mph - N/A   Clear
7:16 PM 35.6 °F 29.9 °F 21.2 °F 56% 29.94 in 10.0 mi East 6.9 mph - N/A   Clear
7:36 PM 35.6 °F 31.7 °F 21.2 °F 56% 29.94 in 10.0 mi East 4.6 mph - N/A   Clear
7:56 PM 35.6 °F 30.7 °F 21.2 °F 56% 29.94 in 10.0 mi East 5.8 mph - N/A   Clear
8:16 PM 37.4 °F 32.1 °F 21.2 °F 52% 29.93 in 10.0 mi East 6.9 mph - N/A   Clear
8:36 PM 35.6 °F 31.7 °F 21.2 °F 56% 29.93 in 10.0 mi ESE 4.6 mph - N/A   Clear
8:56 PM 35.6 °F 30.7 °F 23.0 °F 60% 29.93 in 10.0 mi South 5.8 mph - N/A   Clear
9:16 PM 35.6 °F 28.6 °F 23.0 °F 60% 29.92 in 10.0 mi East 9.2 mph - N/A   Clear
9:36 PM 35.6 °F 29.9 °F 21.2 °F 56% 29.91 in 10.0 mi ENE 6.9 mph - N/A   Scattered Clouds
9:56 PM 35.6 °F 29.9 °F 23.0 °F 60% 29.91 in 10.0 mi ENE 6.9 mph - N/A   Mostly Cloudy
10:16 PM 35.6 °F 30.7 °F 21.2 °F 56% 29.92 in 10.0 mi East 5.8 mph - N/A   Overcast
10:36 PM 37.4 °F 32.8 °F 24.8 °F 60% 29.92 in 10.0 mi ESE 5.8 mph - N/A   Overcast
10:56 PM 35.6 °F 30.7 °F 23.0 °F 60% 29.91 in 10.0 mi ENE 5.8 mph - N/A   Overcast
11:16 PM 35.6 °F 29.9 °F 23.0 °F 60% 29.91 in 10.0 mi ENE 6.9 mph - N/A   Mostly Cloudy
11:36 PM 35.6 °F 29.9 °F 23.0 °F 60% 29.91 in 10.0 mi NE 6.9 mph - N/A   Scattered Clouds
11:56 PM 37.4 °F 32.1 °F 26.6 °F 65% 29.91 in 10.0 mi ESE 6.9 mph - N/A   Partly Cloudy